Hourly Data Report for October 03, 2017

All times are specified in Local Standard Time (LST). Add 1 hour to adjust for Daylight Saving Time where and when it is observed.

PRINCE RUPERT
BRITISH COLUMBIA

54°17'10.000" N
130°26'41.000" W
35.40 m
1066482
71022
YPR

Download Data

Hourly Data (October 2017)
Hourly Data Report for October 3, 2017
Temp Definition
°C
Dew Point Temp Definition
°C
Rel Hum Definition
%
Wind Dir Definition
10's deg

Wind Spd Definition
km/h
Visibility Definition
km
Stn Press Definition
kPa
Hmdx Definition


Wind Chill Definition


Weather Definition


TIME
00:00 Legend Double Dagger 7.5 4.3 80 8 17 16.1 102.30     LegendNANA
01:00 Legend Double Dagger 7.9 4.3 78 8 15 16.1 102.33     LegendNANA
02:00 Legend Double Dagger 6.0 4.2 88 6 8 16.1 102.35     LegendNANA
03:00 Legend Double Dagger 7.5 3.8 77 6 11 16.1 102.32     LegendNANA
04:00 Legend Double Dagger 6.8 4.3 84 5 9 16.1 102.32     LegendNANA
05:00 Legend Double Dagger 5.6 3.7 88 5 8 16.1 102.29     LegendNANA
06:00 Legend Double Dagger 7.3 3.4 76 7 9 16.1 102.27     LegendNANA
07:00 Legend Double Dagger 6.6 4.3 85 5 11 16.1 102.24     LegendNANA
08:00 Legend Double Dagger 6.9 4.4 84 LegendMM 4 16.1 102.29     LegendNANA
09:00 Legend Double Dagger 9.3 5.1 75 6 8 16.1 102.29     LegendNANA
10:00 Legend Double Dagger 11.1 4.5 64   0 16.1 102.28     LegendNANA
11:00 Legend Double Dagger 12.5 3.7 55 LegendMM 4 16.1 102.29     LegendNANA
12:00 Legend Double Dagger 13.0 5.6 61 22 8 16.1 102.28     LegendNANA
13:00 Legend Double Dagger 13.8 4.1 52 27 5 16.1 102.28     LegendNANA
14:00 Legend Double Dagger 14.4 4.9 53 24 5 16.1 102.26     LegendNANA
15:00 Legend Double Dagger 14.9 3.3 45 LegendMM 4 16.1 102.23     LegendNANA
16:00 Legend Double Dagger 14.8 5.4 53 34 8 16.1 102.18     LegendNANA
17:00 Legend Double Dagger 13.7 3.2 49 35 5 16.1 102.12     LegendNANA
18:00 Legend Double Dagger 12.3 4.6 59 33 5 16.1 102.11     LegendNANA
19:00 Legend Double Dagger 9.9 5.0 71 1 4 16.1 102.08     LegendNANA
20:00 Legend Double Dagger 9.3 6.8 84 8 5 16.1 102.08     LegendNANA
21:00 Legend Double Dagger 7.7 6.2 90 8 4 16.1 102.07     LegendNANA
22:00 Legend Double Dagger 7.8 6.6 92 7 11 16.1 102.06     LegendNANA
23:00 Legend Double Dagger 7.9 6.2 89 7 17 16.1 102.02     LegendNANA

Notes on Data Quality.

Legend

  • E = Estimated
  • M = Missing
  • NA = Not Available
  • ‡ = Partner data that is not subject to review by the National Climate Archives
Date modified: